Location: ?
(35.4996°N, 139.3166°E)
Time: 14:31:54
(UTC+00:00)

ALOS - Pass Details

Date: 18 April 2024
Orbit: 674 x 675 km, 98.0° (Epoch: 19 May)

Event Time Altitude Azimuth Distance (km) Brightness Sun altitude
Rises 17:10:56 0° 16° (NNE) 3,035 6.5 -31.5°
Reaches altitude 10° 17:13:12 10° 20° (NNE) 2,116 5.5 -31.2°
Enters shadow 17:16:29 43° 43° (NE) 948 3.3 -30.7°
